Weather History for Penn Yan, NY

Change the Weather History Date:

Thursday, October 17, 2013

  Actual Average (KITH) Record (KITH)
Temperature  
Mean Temperature 55 °F -  
Max Temperature 64 °F 58 °F 83 °F (1947)
Min Temperature 46 °F 38 °F 21 °F (1978)
Degree Days  
Heating Degree Days 10    
Growing Degree Days 5 (Base 50)    
Moisture  
Dew Point 50 °F    
Average Humidity 83    
Maximum Humidity 100    
Minimum Humidity 50    
Precipitation  
Precipitation 0.66 in - - ()
Sea Level Pressure  
Sea Level Pressure 29.79 in    
Wind  
Wind Speed 5 mph (WSW)    
Max Wind Speed 10 mph    
Max Gust Speed 16 mph    
Visibility 8 miles    
Events Rain    
Averages and records for this station are not official NWS values.
T = Trace of Precipitation, MM = Missing Value Source: NWS Daily Summary

Daily Weather History Graph

Daily Weather History Graph

Search for Another Location

Airport:

Trip Planner

Search our weather history database for the weather conditions in past years. The results will help you decide how hot, cold, wet, or windy it might be!

Date:

Astronomy

Oct. 17, 2013 Rise Set
Actual Time 7:23 AM EDT 6:22 PM EDT
Civil Twilight 6:55 AM EDT 6:50 PM EDT
Nautical Twilight 6:22 AM EDT 7:23 PM EDT
Astronomical Twilight 5:50 AM EDT 7:56 PM EDT
Moon 5:36 PM EDT (10/17) 5:52 AM EDT (10/17)
Length of Visible Light 11h 55m
Length of Day
10h 58m
Waxing Gibbous, 98% of the Moon is Illuminated
Oct 17
Waxing Gibbous
Oct 18
Full
Oct 26
Last Quarter
Nov 3
New
Nov 10
First Quarter

Hourly Weather History & Observations

Time (EDT) Temp. Dew Point Humidity Pressure Visibility Wind Dir Wind Speed Gust Speed Precip Events Conditions
12:13 AM 59.0 °F 53.6 °F 82% 29.85 in 10.0 mi West 9.2 mph - N/A   Overcast
12:53 AM 57.9 °F 52.0 °F 81% 29.86 in 10.0 mi WSW 10.4 mph 16.1 mph 0.01 in   Overcast
1:53 AM 57.0 °F 51.1 °F 81% 29.86 in 10.0 mi WSW 9.2 mph - N/A   Overcast
2:53 AM 55.9 °F 50.0 °F 80% 29.87 in 10.0 mi WSW 8.1 mph - N/A   Mostly Cloudy
3:53 AM 53.1 °F 50.0 °F 89% 29.88 in 10.0 mi SW 4.6 mph - N/A   Clear
4:53 AM 51.1 °F 50.0 °F 96% 29.88 in 10.0 mi Calm Calm - N/A   Partly Cloudy
5:53 AM 46.9 °F 46.9 °F 100% 29.90 in 8.0 mi Calm Calm - N/A   Partly Cloudy
6:53 AM 48.9 °F 48.0 °F 97% 29.89 in 10.0 mi SSW 4.6 mph - N/A   Partly Cloudy
7:53 AM 50.0 °F 48.9 °F 96% 29.90 in 6.0 mi SW 4.6 mph - N/A   Clear
8:53 AM 53.1 °F 48.9 °F 86% 29.90 in 10.0 mi SSW 4.6 mph - N/A   Clear
9:53 AM 55.9 °F 48.9 °F 77% 29.90 in 10.0 mi South 6.9 mph - N/A   Clear
10:53 AM 59.0 °F 48.9 °F 69% 29.89 in 10.0 mi South 5.8 mph - N/A   Partly Cloudy
11:53 AM 57.9 °F 48.0 °F 70% 29.88 in 10.0 mi Calm Calm - N/A   Clear
12:53 PM 63.0 °F 46.9 °F 56% 29.85 in 10.0 mi Calm Calm - 0.02 in   Mostly Cloudy
1:53 PM 63.0 °F 45.0 °F 52% 29.82 in 10.0 mi Variable 4.6 mph - N/A   Partly Cloudy
2:53 PM 64.0 °F 45.0 °F 50% 29.81 in 10.0 mi Variable 4.6 mph - N/A   Clear
3:53 PM 63.0 °F 46.9 °F 56% 29.77 in 10.0 mi Calm Calm - N/A   Clear
4:53 PM 62.1 °F 46.0 °F 56% 29.74 in 10.0 mi East 3.5 mph - N/A   Mostly Cloudy
5:53 PM 59.0 °F 48.0 °F 67% 29.70 in 10.0 mi Calm Calm - N/A   Partly Cloudy
6:53 PM 57.9 °F 48.9 °F 72% 29.69 in 10.0 mi Calm Calm - 0.00 in Rain Light Rain
7:18 PM 55.4 °F 51.8 °F 88% 29.71 in 2.5 mi Calm Calm - 0.07 in Rain Rain
7:31 PM 55.4 °F 53.6 °F 94% 29.72 in 2.0 mi Calm Calm - 0.14 in Rain Heavy Rain
7:39 PM 55.4 °F 53.6 °F 94% 29.70 in 3.0 mi North 4.6 mph - 0.15 in Rain Rain
7:53 PM 54.0 °F 53.1 °F 97% 29.73 in 2.5 mi NW 3.5 mph - 0.21 in Rain Heavy Rain
8:03 PM 53.6 °F 51.8 °F 94% 29.71 in 2.0 mi NNW 4.6 mph - 0.06 in Rain Heavy Rain
8:24 PM 53.6 °F 51.8 °F 94% 29.73 in 1.8 mi WNW 6.9 mph - 0.20 in Rain Heavy Rain
8:43 PM 53.6 °F 51.8 °F 94% 29.71 in 2.5 mi North 5.8 mph - 0.33 in Rain Rain
8:53 PM 53.1 °F 51.1 °F 93% 29.71 in 4.0 mi NNW 6.9 mph - 0.35 in Rain Rain
9:23 PM 53.6 °F 51.8 °F 94% 29.74 in 3.0 mi Calm Calm - 0.04 in Rain Rain
9:53 PM 53.1 °F 52.0 °F 96% 29.70 in 4.0 mi Calm Calm - 0.07 in Rain Light Rain
10:10 PM 53.6 °F 51.8 °F 94% 29.69 in 7.0 mi Calm Calm - 0.00 in Rain Light Rain
10:53 PM 53.1 °F 51.1 °F 93% 29.70 in 7.0 mi Calm Calm - 0.00 in   Overcast
11:20 PM 53.6 °F 51.8 °F 94% 29.71 in 9.0 mi SSW 3.5 mph - N/A   Overcast
11:53 PM 53.1 °F 51.1 °F 93% 29.72 in 10.0 mi WSW 3.5 mph - N/A   Overcast